This is the latest recevied weather packets stored in our database for station/object KG4GJX. If no packets are shown the sender has not sent any weather packets the latest 10 day(s).
| Time | Temp. | Humidity | Pressure | Rain* | Wind** | Luminosity | Snow |
|---|---|---|---|---|---|---|---|
| 1777283707 | 12.78° C | 100% | 1017.2 hPa | 0 mm | - | - | - |
| 1777281725 | 13.33° C | 100% | 1016.9 hPa | 0 mm | - | - | - |
| 1777280402 | 13.33° C | 100% | 1016.5 hPa | 0 mm | - | - | - |
| 1777274684 | 14.44° C | 100% | 1015.9 hPa | 0 mm | - | - | - |
| 1777274022 | 13.89° C | 100% | 1015.5 hPa | 0 mm | - | - | - |
| 1777273359 | 13.33° C | 100% | 1015.9 hPa | 0 mm | - | - | - |
| 1777272037 | 13.33° C | 100% | 1015.5 hPa | 0 mm | - | - | - |
| 1777270054 | 13.89° C | 100% | 1015.5 hPa | 0 mm | - | - | - |
| 1777268732 | 14.44° C | 100% | 1015.5 hPa | 0 mm | - | - | - |
| 1777268069 | 13.89° C | 100% | 1015.9 hPa | 0 mm | - | - | - |
| 1777267407 | 13.89° C | 100% | 1015.5 hPa | 0 mm | - | - | - |
| 1777266745 | 13.89° C | 100% | 1015.9 hPa | 0 mm | - | - | - |
| 1777266082 | 13.89° C | 100% | 1015.5 hPa | 0 mm | - | - | - |
| 1777264760 | 13.89° C | 100% | 1015.2 hPa | 0 mm | - | - | - |
| 1777262778 | 14.44° C | 100% | 1015.2 hPa | 0 mm | - | - | - |
| 1777261455 | 15° C | 100% | 1014.9 hPa | 0 mm | - | - | - |
| 1777260793 | 15° C | 99% | 1014.5 hPa | 0 mm | - | - | - |
| 1777260130 | 15° C | 99% | 1014.9 hPa | 0 mm | - | - | - |
| 1777259468 | 15.56° C | 99% | 1014.9 hPa | 0 mm | - | - | - |
| 1777258806 | 15.56° C | 98% | 1014.9 hPa | 0 mm | - | - | - |
| 1777258144 | 15.56° C | 97% | 1014.9 hPa | 0 mm | - | - | - |
| 1777257481 | 15.56° C | 98% | 1014.9 hPa | 0 mm | - | - | - |
| 1777256819 | 15.56° C | 95% | 1014.9 hPa | 0 mm | - | - | - |
| 1777255496 | 16.11° C | 93% | 1014.5 hPa | 0 mm | - | - | - |
| 1777254834 | 16.11° C | 92% | 1014.2 hPa | 0 mm | - | - | - |
* Rain latest hour (hover to see other rain measurements)
** Current wind speed in m/s (hover to see current wind gust speed)